Location: Hall+in+Tirol
(47.2830°N, 11.5170°E)
Time: 08:44:23
(UTC+02:00)

Amateur Radio Satellites - All Passes

Search period start: 24 August 2016 08:14
Search period end: 25 August 2016 08:14
Location: Hall+in+Tirol, 47.2830°N, 11.5170°E

Satellite Date Start Highest point End Downlink Frequencies (MHz)
Time Altitude Azimuth
STRAND 1 24 Aug 08:14:50 08:19:39 42° 262° (W) 08:24:31 437.568
Cosmos 2504 24 Aug 08:17:43 08:26:03 61° 92° (E) 08:33:51 435.465 / 435.565
CUTE 1.7 + AOD 2 24 Aug 08:18:15 08:21:13 18° 91° (E) 08:24:11 437.475
PHONESAT 2.4 24 Aug 08:19:41 08:21:25 14° 198° (SSW) 08:23:08 2401.200-2431.200
AO-85 24 Aug 08:25:30 08:30:28 43° 315° (NW) 08:35:09 145.980
LilacSat-2 24 Aug 08:36:30 08:39:31 23° 294° (WNW) 08:42:30 437.200
CUBEBUG 2 24 Aug 08:37:26 08:38:28 11° 86° (E) 08:39:30 437.445
PRISM 24 Aug 08:41:34 08:45:31 51° 71° (ENE) 08:49:32 437.425
AAUSAT CUBESAT 2 24 Aug 08:43:19 08:45:24 13° 89° (E) 08:47:28 437.432
COMPASS 1 24 Aug 08:46:18 08:49:13 18° 91° (E) 08:52:07 437.405
Cubesat XI-IV 24 Aug 09:08:13 09:12:27 25° 299° (WNW) 09:16:39 437.490
YUBILEINY 24 Aug 09:12:02 09:19:49 34° 295° (WNW) 09:27:40 435.215
CUTE-I 24 Aug 09:21:53 09:25:36 20° 302° (WNW) 09:29:18 437.470
GOMX 1 24 Aug 09:21:53 09:25:32 18° 302° (WNW) 09:29:08 467.674
TIGRISAT 24 Aug 09:22:06 09:25:10 18° 61° (ENE) 09:28:11 435.000
CINEMA 3 24 Aug 09:24:26 09:29:07 75° 286° (WNW) 09:33:34 145.822/145.860
NOAA 18 24 Aug 09:25:05 09:29:11 22° 302° (WNW) 09:33:17 137.9125
CUSAT 1 24 Aug 09:25:28 09:28:04 13° 61° (ENE) 09:30:53 437.405
BRITE-PL 24 Aug 09:25:36 09:26:47 11° 309° (NW) 09:27:56 437.365/2234.400
SEEDS 24 Aug 09:33:28 09:37:40 79° 101° (E) 09:41:53 437.485
SO-50 24 Aug 09:35:42 09:40:23 78° 52° (NE) 09:44:53 436.795
NOAA 15 24 Aug 09:38:37 09:40:45 12° 308° (NW) 09:42:53 137.62
CANX-2 24 Aug 09:46:15 09:50:20 48° 289° (WNW) 09:54:24 2200.000
UNISAT 6 24 Aug 09:48:03 09:52:07 31° 67° (ENE) 09:56:07 437.425
DOVE 4 24 Aug 09:50:28 09:53:58 19° 301° (WNW) 09:57:22 437.250
CUTE 1.7 + AOD 2 24 Aug 09:53:15 09:57:19 46° 289° (WNW) 10:01:22 437.475
HO-68 24 Aug 10:00:49 10:07:58 70° 291° (WNW) 10:15:03 435.675
AO-85 24 Aug 10:09:33 10:12:08 14° 337° (NNW) 10:14:37 145.980
CUBEBUG 2 24 Aug 10:11:24 10:15:45 81° 285° (WNW) 10:19:56 437.445
ISS 24 Aug 10:12:09 10:13:39 13° 134° (SE) 10:15:10 145.825
Cosmos 2504 24 Aug 10:12:23 10:19:52 34° 293° (WNW) 10:26:56 435.465 / 435.565
AIST 1 24 Aug 10:12:59 10:17:12 54° 94° (E) 10:21:29
AAUSAT CUBESAT 2 24 Aug 10:17:11 10:21:18 63° 286° (WNW) 10:25:25 437.432
UWE-3 24 Aug 10:18:08 10:22:25 82° 103° (ESE) 10:26:35 435.000/436.395/437.385
PRISM 24 Aug 10:18:35 10:21:08 16° 269° (W) 10:23:44 437.425
QB50P2 24 Aug 10:19:46 10:21:23 12° 58° (ENE) 10:22:59 145.880/145.840
RS-15 24 Aug 10:20:02 10:32:16 61° 41° (NE) 10:44:24 29.354- 29.394
COMPASS 1 24 Aug 10:21:01 10:25:01 46° 289° (WNW) 10:29:01 437.405
Oscar 11 24 Aug 10:21:46 10:26:02 58° 100° (E) 10:30:17 145.826/435.025
POLYITAN 1 24 Aug 10:22:14 10:23:54 12° 58° (ENE) 10:25:35 437.675
FUNcube-1 24 Aug 10:23:26 10:27:34 56° 100° (E) 10:31:38 145.935
DUCHIFAT 1 24 Aug 10:23:54 10:25:01 11° 57° (ENE) 10:26:08 145.980
ANTELSAT 24 Aug 10:24:34 10:29:10 68° 73° (ENE) 10:33:42 437.575/2403.000
HUMSAT D 24 Aug 10:31:20 10:33:56 16° 91° (E) 10:36:31 437.325/437.525
NANOSAT C BR1 24 Aug 10:34:09 10:36:30 15° 60° (ENE) 10:38:53 145.865
JAS-2 24 Aug 10:36:27 10:38:07 11° 49° (NE) 10:39:51 435.910
ZACube-1 24 Aug 10:42:27 10:46:41 85° 287° (WNW) 10:50:50 437.345
TIGRISAT 24 Aug 10:56:48 11:01:24 63° 258° (WSW) 11:05:57 435.000
DELFI C3 24 Aug 10:57:01 11:00:59 61° 101° (E) 11:04:57 145.870
BEESAT 2 24 Aug 11:00:40 11:03:02 15° 112° (ESE) 11:05:24 435.950
CINEMA 3 24 Aug 11:04:08 11:05:21 11° 305° (NW) 11:06:34 145.822/145.860
CUSAT 1 24 Aug 11:05:05 11:10:45 66° 77° (ENE) 11:17:56 437.405
SEEDS 24 Aug 11:10:58 11:12:48 13° 301° (WNW) 11:14:38 437.485
QB50P1 24 Aug 11:13:46 11:17:41 35° 68° (ENE) 11:21:35 145.935-145.965
SO-50 24 Aug 11:17:35 11:20:14 15° 250° (WSW) 11:22:50 436.795
AUBIESAT-1 24 Aug 11:21:30 11:22:51 11° 92° (E) 11:24:12 437.475
DANDE 24 Aug 11:22:07 11:26:25 35° 74° (ENE) 11:31:55 436.750
M-CUBED/EXP-1 PRIME 24 Aug 11:22:32 11:25:00 15° 94° (E) 11:27:22 437.505
POPSAT HIP 1 24 Aug 11:23:11 11:27:14 43° 70° (ENE) 11:31:19 437.405
UNISAT 6 24 Aug 11:24:37 11:28:47 33° 264° (W) 11:32:55 437.425
BEESAT 3 24 Aug 11:25:43 11:29:30 49° 122° (ESE) 11:33:21 437.485
GONETS M04 24 Aug 11:31:10 11:37:24 22° 76° (ENE) 11:43:37
BUGSAT 1 24 Aug 11:34:01 11:37:27 24° 65° (ENE) 11:40:53 437.445
Cosmos 2499 24 Aug 11:39:05 11:43:52 17° 77° (ENE) 11:48:29 435.465 / 435.565
ESTCUBE 1 24 Aug 11:39:25 11:42:18 17° 90° (E) 11:45:11 437.505/2401.250
ISS 24 Aug 11:46:19 11:49:35 71° 151° (SSE) 11:52:51 145.825
HO-68 24 Aug 11:50:03 11:54:29 18° 313° (NW) 11:58:55 435.675
CUBEBUG 2 24 Aug 11:50:51 11:51:35 10° 304° (NW) 11:52:18 437.445
QB50P2 24 Aug 11:52:13 11:56:31 89° 254° (WSW) 12:00:50 145.880/145.840
AIST 1 24 Aug 11:52:19 11:55:11 17° 294° (WNW) 11:58:04
POLYITAN 1 24 Aug 11:54:46 11:59:04 88° 258° (WSW) 12:03:23 437.675
DUCHIFAT 1 24 Aug 11:55:44 11:59:59 84° 77° (ENE) 12:04:17 145.980
UWE-3 24 Aug 11:56:29 11:58:14 12° 302° (WNW) 11:59:58 435.000/436.395/437.385
Oscar 11 24 Aug 11:58:59 12:01:45 17° 299° (WNW) 12:04:31 145.826/435.025
FUNcube-1 24 Aug 12:00:46 12:03:24 16° 299° (WNW) 12:06:01 145.935
ANTELSAT 24 Aug 12:03:39 12:06:19 15° 271° (W) 12:08:58 437.575/2403.000
AISAT 24 Aug 12:05:11 12:08:08 17° 91° (E) 12:11:05 437.250
HUMSAT D 24 Aug 12:05:54 12:09:51 49° 288° (WNW) 12:13:47 437.325/437.525
NANOSAT C BR1 24 Aug 12:07:28 12:11:43 70° 257° (WSW) 12:16:00 145.865
JAS-2 24 Aug 12:16:58 12:22:06 67° 71° (ENE) 12:27:32 435.910
ZACube-1 24 Aug 12:21:25 12:22:15 11° 303° (WNW) 12:23:05 437.345
Oscar 19 24 Aug 12:31:47 12:35:48 24° 61° (ENE) 12:39:51 437.125/150
RS-15 24 Aug 12:33:01 12:44:49 54° 247° (WSW) 12:56:25 29.354- 29.394
DELFI C3 24 Aug 12:33:11 12:35:23 14° 299° (WNW) 12:37:35 145.870
BEESAT 2 24 Aug 12:36:28 12:40:24 63° 311° (NW) 12:44:22 435.950
UKube-1 24 Aug 12:36:53 12:39:53 18° 92° (E) 12:42:52 .
PCSat 24 Aug 12:42:53 12:47:24 28° 110° (ESE) 12:51:58 145.827
AO-7 24 Aug 12:47:07 12:49:57 12° 32° (NNE) 12:52:47 29.400- 29.500
CUSAT 1 24 Aug 12:47:52 12:52:33 25° 270° (W) 12:58:03 437.405
QB50P1 24 Aug 12:49:59 12:53:31 25° 266° (W) 12:57:06 145.935-145.965
VELOX 1 24 Aug 12:52:02 12:56:21 46° 99° (E) 13:00:39 145.980
AUBIESAT-1 24 Aug 12:53:40 12:57:58 77° 291° (WNW) 13:01:54 437.475
M-CUBED/EXP-1 PRIME 24 Aug 12:55:41 13:00:00 61° 294° (WNW) 13:03:59 437.505
50 SAT 24 Aug 12:57:44 13:01:18 54° 101° (E) 13:04:52 437.505
POPSAT HIP 1 24 Aug 12:59:59 13:03:13 21° 267° (W) 13:06:28 437.405
BEESAT 3 24 Aug 13:04:11 13:07:25 24° 321° (NW) 13:10:40 437.485
DANDE 24 Aug 13:04:49 13:09:08 34° 265° (W) 13:14:40 436.750
CUBEBUG 1 24 Aug 13:05:02 13:09:30 77° 102° (ESE) 13:13:56 437.445
BUGSAT 1 24 Aug 13:08:41 13:12:38 37° 262° (W) 13:16:38 437.445
Gurwin Techsat 1B 24 Aug 13:08:50 13:13:03 25° 61° (ENE) 13:17:17 435.225
ESTCUBE 1 24 Aug 13:15:02 13:19:30 60° 288° (WNW) 13:23:58 437.505/2401.250
ISS 24 Aug 13:23:03 13:26:10 40° 351° (N) 13:29:17 145.825
DX 1 24 Aug 13:23:27 13:27:50 66° 102° (ESE) 13:32:12 434.975-435.025
GONETS M04 24 Aug 13:24:15 13:33:00 88° 277° (W) 13:41:54
Cosmos 2499 24 Aug 13:27:37 13:35:53 81° 97° (E) 13:43:32 435.465 / 435.565
AO-85 24 Aug 13:34:21 13:37:11 16° 27° (NNE) 13:39:53 145.980
DUCHIFAT 1 24 Aug 13:35:22 13:36:17 11° 273° (W) 13:37:11 145.980
ITAMSAT 1 24 Aug 13:38:13 13:41:11 16° 55° (NE) 13:44:09 435.822/435.867
AISAT 24 Aug 13:40:34 13:44:58 56° 289° (WNW) 13:49:20 437.250
SPROUT 24 Aug 13:42:04 13:46:24 81° 103° (ESE) 13:50:40 437.525
JAS-2 24 Aug 14:04:32 14:07:54 17° 272° (W) 14:11:22 435.910
Oscar 19 24 Aug 14:09:42 14:14:46 56° 259° (W) 14:19:53 437.125/150
UKube-1 24 Aug 14:12:00 14:16:14 51° 289° (WNW) 14:20:25 .
AIST 2 24 Aug 14:12:55 14:16:58 63° 124° (ESE) 14:21:05 435.215
TISAT 1 24 Aug 14:16:15 14:20:17 42° 98° (E) 14:24:16 437.305
BEESAT 2 24 Aug 14:16:57 14:19:01 14° 331° (NNW) 14:21:06 435.950
PCSat 24 Aug 14:25:13 14:30:31 53° 309° (NW) 14:35:52 145.827
VELOX 1 24 Aug 14:29:06 14:32:32 22° 297° (WNW) 14:35:59 145.980
ITUPSAT 1 24 Aug 14:30:11 14:32:25 13° 88° (E) 14:34:39 437.325
AUBIESAT-1 24 Aug 14:30:17 14:31:34 11° 311° (NW) 14:32:50 437.475
50 SAT 24 Aug 14:32:39 14:34:29 13° 298° (WNW) 14:36:20 437.505
AO-7 24 Aug 14:32:54 14:40:26 39° 56° (NE) 14:47:57 29.400- 29.500
CUBEBUG 1 24 Aug 14:42:48 14:45:12 14° 301° (WNW) 14:47:35 437.445
Gurwin Techsat 1B 24 Aug 14:47:27 14:52:39 55° 259° (W) 14:57:55 435.225
RS-15 24 Aug 14:50:19 14:54:09 12° 270° (W) 14:57:58 29.354- 29.394
ISS 24 Aug 14:59:52 15:03:00 42° 11° (N) 15:06:09 145.825
DX 1 24 Aug 15:00:50 15:03:33 16° 300° (WNW) 15:06:14 434.975-435.025
SWISSCUBE 24 Aug 15:04:02 15:08:15 30° 96° (E) 15:12:27 437.505
AO-85 24 Aug 15:14:08 15:18:33 68° 51° (NE) 15:22:34 145.980
ITAMSAT 1 24 Aug 15:14:44 15:19:56 90° 75° (ENE) 15:25:10 435.822/435.867
SPROUT 24 Aug 15:19:45 15:21:44 13° 302° (WNW) 15:23:41 437.525
BEESAT 24 Aug 15:21:29 15:25:58 40° 98° (E) 15:30:26 436.000
Cosmos 2499 24 Aug 15:23:34 15:29:51 24° 297° (WNW) 15:35:49 435.465 / 435.565
GONETS M04 24 Aug 15:24:38 15:31:14 23° 302° (WNW) 15:37:55
O/OREOS (USA 219) 24 Aug 15:26:43 15:31:11 70° 112° (ESE) 15:35:42 437.305
TISAT 1 24 Aug 15:52:28 15:55:41 21° 297° (WNW) 15:58:53 437.305
AIST 2 24 Aug 15:52:35 15:55:50 22° 323° (NW) 15:59:07 435.215
ITUPSAT 1 24 Aug 16:06:04 16:10:52 81° 286° (WNW) 16:15:38 437.325
MOZHAYETS 4 24 Aug 16:10:57 16:14:25 21° 92° (E) 16:17:52
PCSat 24 Aug 16:11:56 16:15:11 16° 332° (NNW) 16:18:26 145.827
AO-7 24 Aug 16:24:39 16:32:53 60° 256° (WSW) 16:41:10 29.400- 29.500
KKS-1 24 Aug 16:33:57 16:37:45 26° 95° (E) 16:41:31 437.445
ISS 24 Aug 16:36:19 16:39:32 59° 210° (SSW) 16:42:45 145.825
SWISSCUBE 24 Aug 16:41:46 16:46:05 35° 294° (WNW) 16:50:22 437.505
AO-85 24 Aug 16:55:59 16:58:20 15° 251° (WSW) 17:00:36 145.980
HORYU 2 24 Aug 16:57:05 17:01:26 52° 71° (ENE) 17:05:47 437.375
ITAMSAT 1 24 Aug 16:57:45 17:00:08 13° 273° (W) 17:02:32 435.822/435.867
BEESAT 24 Aug 16:59:36 17:03:36 27° 296° (WNW) 17:07:35 436.000
O/OREOS (USA 219) 24 Aug 17:08:01 17:11:06 18° 313° (NW) 17:14:14 437.305
Cosmos 2491 24 Aug 17:09:44 17:12:59 13° 69° (ENE) 17:16:14 435.465 / 435.565
Cubesat XI-IV 24 Aug 17:14:37 17:18:29 21° 59° (ENE) 17:22:21 437.490
GOMX 1 24 Aug 17:17:18 17:20:51 19° 58° (ENE) 17:24:31 467.674
BRITE-PL 24 Aug 17:19:53 17:24:15 35° 66° (ENE) 17:28:58 437.365/2234.400
YUBILEINY 24 Aug 17:20:05 17:28:10 38° 67° (ENE) 17:36:09 435.215
STARS 24 Aug 17:20:32 17:24:41 39° 98° (E) 17:28:48 437.465
CUBESAT XI-V 24 Aug 17:20:42 17:23:29 16° 89° (E) 17:26:18 437.345
CUTE-I 24 Aug 17:27:12 17:31:31 26° 61° (ENE) 17:35:51 437.470
NOAA 18 24 Aug 17:33:41 17:38:21 29° 61° (ENE) 17:43:01 137.9125
NOAA 15 24 Aug 17:40:42 17:45:33 40° 66° (ENE) 17:50:27 137.62
DOVE 4 24 Aug 17:44:12 17:47:27 17° 58° (ENE) 17:50:46 437.250
ITUPSAT 1 24 Aug 17:45:58 17:47:56 13° 305° (NW) 17:49:55 437.325
LilacSat-2 24 Aug 17:47:00 17:50:12 25° 67° (ENE) 17:53:24 437.200
MOZHAYETS 4 24 Aug 17:47:26 17:51:50 47° 290° (WNW) 17:56:12
BEESAT 3 24 Aug 18:03:08 18:05:39 16° 32° (NNE) 18:08:10 437.485
Cosmos 2504 24 Aug 18:07:17 18:13:07 24° 62° (ENE) 18:18:47 435.465 / 435.565
KKS-1 24 Aug 18:10:18 18:14:24 36° 293° (WNW) 18:18:28 437.445
ISS 24 Aug 18:14:52 18:15:22 10° 227° (SW) 18:15:53 145.825
AO-7 24 Aug 18:24:37 18:27:27 12° 277° (W) 18:30:18 29.400- 29.500
HORYU 2 24 Aug 18:35:11 18:38:17 18° 268° (W) 18:41:25 437.375
HO-68 24 Aug 18:46:07 18:52:05 29° 56° (NE) 18:58:04 435.675
CINEMA 3 24 Aug 18:52:43 18:56:25 21° 62° (ENE) 19:00:06 145.822/145.860
Cubesat XI-IV 24 Aug 18:52:44 18:58:03 69° 257° (WSW) 19:03:24 437.490
GOMX 1 24 Aug 18:53:17 18:58:16 73° 258° (WSW) 19:03:38 467.674
CUBESAT XI-V 24 Aug 18:56:40 19:01:21 67° 287° (WNW) 19:06:01 437.345
STARS 24 Aug 18:57:15 19:00:52 25° 296° (WNW) 19:04:25 437.465
BRITE-PL 24 Aug 18:58:29 19:02:45 32° 267° (W) 19:07:23 437.365/2234.400
Cosmos 2491 24 Aug 18:59:21 19:07:51 61° 92° (E) 19:16:26 435.465 / 435.565
CUTE-I 24 Aug 19:06:03 19:11:15 53° 260° (W) 19:16:29 437.470
CANX-2 24 Aug 19:07:13 19:10:17 20° 63° (ENE) 19:13:20 2200.000
NOAA 18 24 Aug 19:13:23 19:18:45 50° 259° (W) 19:24:10 137.9125
CUTE 1.7 + AOD 2 24 Aug 19:14:04 19:17:10 20° 64° (ENE) 19:20:16 437.475
BEESAT 2 24 Aug 19:14:05 19:17:40 30° 42° (NE) 19:21:14 435.950
YUBILEINY 24 Aug 19:16:51 19:25:21 56° 270° (W) 19:33:46 435.215
DOVE 4 24 Aug 19:19:17 19:24:25 84° 256° (WSW) 19:29:46 437.250
NOAA 15 24 Aug 19:20:46 19:25:25 32° 265° (W) 19:30:07 137.62
LilacSat-2 24 Aug 19:21:03 19:24:26 28° 265° (W) 19:27:48 437.200
AAUSAT CUBESAT 2 24 Aug 19:36:53 19:39:09 15° 61° (ENE) 19:41:24 437.432
CUBEBUG 2 24 Aug 19:37:21 19:40:19 17° 61° (ENE) 19:43:14 437.445
BEESAT 3 24 Aug 19:39:57 19:43:56 83° 52° (NE) 19:47:54 437.485
COMPASS 1 24 Aug 19:40:16 19:43:12 19° 63° (ENE) 19:46:09 437.405
UWE-3 24 Aug 19:44:02 19:46:12 13° 59° (ENE) 19:48:21 435.000/436.395/437.385
PCSat 24 Aug 19:44:08 19:47:07 15° 26° (NNE) 19:50:04 145.827
Cosmos 2504 24 Aug 19:59:59 20:07:19 72° 265° (W) 20:14:25 435.465 / 435.565
ZACube-1 24 Aug 20:07:02 20:09:25 14° 60° (ENE) 20:11:47 437.345
AIST 1 24 Aug 20:17:13 20:20:30 20° 68° (ENE) 20:23:46
STRAND 1 24 Aug 20:21:41 20:26:40 51° 100° (E) 20:31:38 437.568
SEEDS 24 Aug 20:27:52 20:32:01 80° 74° (ENE) 20:36:12 437.485
CINEMA 3 24 Aug 20:28:09 20:33:07 61° 260° (W) 20:38:05 145.822/145.860
HO-68 24 Aug 20:32:06 20:39:16 70° 256° (WSW) 20:46:29 435.675
GOMX 1 24 Aug 20:36:52 20:37:24 10° 278° (W) 20:37:54 467.674
CUBESAT XI-V 24 Aug 20:37:20 20:37:51 10° 305° (NW) 20:38:21 437.345
CANX-2 24 Aug 20:41:48 20:45:51 45° 261° (W) 20:49:55 2200.000
CUTE 1.7 + AOD 2 24 Aug 20:48:43 20:52:44 44° 261° (W) 20:56:46 437.475
BEESAT 2 24 Aug 20:51:50 20:55:33 36° 241° (WSW) 20:59:13 435.950
AIST 2 24 Aug 20:53:28 20:56:38 20° 35° (NE) 20:59:46 435.215
Cosmos 2491 24 Aug 20:57:27 21:05:14 35° 294° (WNW) 21:13:07 435.465 / 435.565
DOVE 4 24 Aug 21:00:47 21:02:55 12° 276° (W) 21:05:06 437.250
AAUSAT CUBESAT 2 24 Aug 21:10:04 21:14:09 64° 259° (W) 21:18:15 437.432
CUBEBUG 2 24 Aug 21:11:44 21:16:27 69° 258° (WSW) 21:21:04 437.445
COMPASS 1 24 Aug 21:14:30 21:18:28 46° 261° (W) 21:22:28 437.405
UWE-3 24 Aug 21:17:26 21:22:03 86° 257° (WSW) 21:26:35 435.000/436.395/437.385
YUBILEINY 24 Aug 21:17:52 21:20:01 11° 292° (WNW) 21:22:09 435.215
Oscar 11 24 Aug 21:19:12 21:23:28 66° 74° (ENE) 21:27:46 145.826/435.025
BEESAT 3 24 Aug 21:19:41 21:21:00 11° 251° (WSW) 21:22:17 437.485
FUNcube-1 24 Aug 21:21:22 21:25:48 65° 74° (ENE) 21:30:09 145.935
HUMSAT D 24 Aug 21:25:39 21:28:33 19° 63° (ENE) 21:31:26 437.325/437.525
PCSat 24 Aug 21:26:38 21:31:54 47° 49° (NE) 21:37:07 145.827
GONETS M04 24 Aug 21:35:46 21:40:07 14° 48° (NE) 21:44:26
ZACube-1 24 Aug 21:40:40 21:45:10 76° 258° (WSW) 21:49:35 437.345
DELFI C3 24 Aug 21:45:39 21:49:27 53° 73° (ENE) 21:53:19 145.870
AIST 1 24 Aug 21:54:08 21:58:22 45° 267° (W) 22:02:33
PRISM 24 Aug 21:54:55 21:59:02 54° 101° (E) 22:03:07 437.425
Cosmos 2504 24 Aug 21:56:12 21:59:11 13° 287° (WNW) 22:02:09 435.465 / 435.565
STRAND 1 24 Aug 22:01:28 22:05:33 25° 298° (WNW) 22:09:38 437.568
SEEDS 24 Aug 22:07:27 22:08:17 11° 273° (W) 22:09:09 437.485
AUBIESAT-1 24 Aug 22:07:57 22:11:55 29° 60° (ENE) 22:15:54 437.475
M-CUBED/EXP-1 PRIME 24 Aug 22:09:59 22:14:14 35° 61° (ENE) 22:18:31 437.505
ANTELSAT 24 Aug 22:16:07 22:16:47 10° 86° (E) 22:17:26 437.575/2403.000
HO-68 24 Aug 22:25:03 22:28:18 13° 276° (W) 22:31:34 435.675
CUBEBUG 1 24 Aug 22:30:35 22:32:27 13° 57° (ENE) 22:34:18 437.445
AIST 2 24 Aug 22:31:23 22:35:35 74° 235° (SW) 22:39:45 435.215
ESTCUBE 1 24 Aug 22:41:48 22:45:18 23° 63° (ENE) 22:48:49 437.505/2401.250
TIGRISAT 24 Aug 22:45:58 22:49:13 21° 92° (E) 22:52:26 435.000
DX 1 24 Aug 22:49:04 22:50:33 12° 56° (NE) 22:52:02 434.975-435.025
Oscar 11 24 Aug 22:57:52 23:00:04 14° 271° (W) 23:02:16 145.826/435.025
UWE-3 24 Aug 22:58:27 22:59:09 10° 274° (W) 22:59:50 435.000/436.395/437.385
HUMSAT D 24 Aug 22:59:48 23:03:51 48° 260° (W) 23:07:53 437.325/437.525
FUNcube-1 24 Aug 22:59:58 23:02:27 15° 271° (W) 23:04:55 145.935
AISAT 24 Aug 23:05:20 23:08:51 23° 63° (ENE) 23:12:23 437.250
SPROUT 24 Aug 23:05:41 23:07:16 12° 58° (ENE) 23:08:52 437.525
PCSat 24 Aug 23:10:22 23:15:08 32° 249° (WSW) 23:19:52 145.827
UNISAT 6 24 Aug 23:12:46 23:16:53 40° 98° (E) 23:20:55 437.425
Cosmos 2499 24 Aug 23:15:25 23:21:45 32° 67° (ENE) 23:27:57 435.465 / 435.565
DELFI C3 24 Aug 23:22:27 23:24:39 14° 270° (W) 23:26:50 145.870
GONETS M04 24 Aug 23:30:40 23:39:23 56° 74° (ENE) 23:48:01
PRISM 24 Aug 23:31:10 23:33:57 17° 299° (WNW) 23:36:43 437.425
UKube-1 24 Aug 23:34:14 23:37:40 24° 64° (ENE) 23:41:09 .
QB50P2 24 Aug 23:36:00 23:37:40 12° 88° (E) 23:39:18 145.880/145.840
50 SAT 24 Aug 23:37:53 23:41:13 37° 70° (ENE) 23:44:34 437.505
POLYITAN 1 24 Aug 23:38:31 23:40:12 12° 88° (E) 23:41:53 437.675
DUCHIFAT 1 24 Aug 23:39:26 23:40:15 10° 87° (E) 23:41:05 145.980
AUBIESAT-1 24 Aug 23:41:50 23:46:11 40° 257° (WSW) 23:50:36 437.475
M-CUBED/EXP-1 PRIME 24 Aug 23:44:30 23:48:42 33° 259° (W) 23:52:58 437.505
ANTELSAT 24 Aug 23:49:47 23:54:09 85° 286° (WNW) 23:58:25 437.575/2403.000
NANOSAT C BR1 24 Aug 23:49:59 23:52:27 15° 90° (E) 23:54:54 145.865
VELOX 1 24 Aug 23:52:02 23:56:24 60° 71° (ENE) 00:00:48 145.980
O/OREOS (USA 219) 24 Aug 23:54:33 23:58:39 31° 55° (NE) 00:02:43 437.305
SO-50 24 Aug 23:55:37 23:57:26 12° 108° (ESE) 23:59:15 436.795
CUBEBUG 1 25 Aug 00:03:39 00:08:02 89° 242° (WSW) 00:12:30 437.445
CUSAT 1 25 Aug 00:13:58 00:16:33 33° 92° (E) 00:19:38 437.405
ESTCUBE 1 25 Aug 00:17:34 00:21:51 44° 261° (W) 00:26:11 437.505/2401.250
DX 1 25 Aug 00:21:38 00:26:01 84° 76° (ENE) 00:30:26 434.975-435.025
TIGRISAT 25 Aug 00:22:02 00:26:08 42° 290° (WNW) 00:30:10 435.000
QB50P1 25 Aug 00:30:43 00:34:44 41° 98° (E) 00:38:43 145.935-145.965
DANDE 25 Aug 00:38:05 00:39:33 14° 90° (E) 00:41:03 436.750
SPROUT 25 Aug 00:38:13 00:42:32 90° 73° (ENE) 00:46:54 437.525
POPSAT HIP 1 25 Aug 00:40:18 00:44:27 51° 100° (E) 00:48:32 437.405
AISAT 25 Aug 00:40:51 00:45:05 43° 261° (W) 00:49:22 437.250
BUGSAT 1 25 Aug 00:47:32 00:50:59 24° 94° (E) 00:54:22 437.445
UNISAT 6 25 Aug 00:49:59 00:53:23 23° 296° (WNW) 00:56:45 437.425
RS-15 25 Aug 00:51:34 00:59:29 22° 97° (E) 01:07:37 29.354- 29.394
BEESAT 25 Aug 00:57:45 00:58:31 10° 53° (NE) 00:59:17 436.000
JAS-2 25 Aug 01:05:34 01:11:54 50° 99° (E) 01:18:58 435.910
Cosmos 2499 25 Aug 01:08:20 01:15:10 52° 269° (W) 01:21:56 435.465 / 435.565
UKube-1 25 Aug 01:09:27 01:13:31 40° 262° (W) 01:17:38 .
QB50P2 25 Aug 01:09:45 01:13:59 73° 287° (WNW) 01:18:11 145.880/145.840
TISAT 1 25 Aug 01:10:32 01:14:37 48° 70° (ENE) 01:18:44 437.305
POLYITAN 1 25 Aug 01:12:17 01:16:32 72° 286° (WNW) 01:20:43 437.675
DUCHIFAT 1 25 Aug 01:12:18 01:16:32 82° 287° (WNW) 01:20:44 145.980
50 SAT 25 Aug 01:12:38 01:14:58 16° 268° (W) 01:17:20 437.505
NANOSAT C BR1 25 Aug 01:24:24 01:28:34 57° 288° (WNW) 01:32:40 145.865
GONETS M04 25 Aug 01:27:59 01:35:52 38° 276° (W) 01:43:44
ANTELSAT 25 Aug 01:28:54 01:30:08 11° 304° (WNW) 01:31:21 437.575/2403.000
VELOX 1 25 Aug 01:30:31 01:33:15 16° 270° (W) 01:36:02 145.980
SO-50 25 Aug 01:32:18 01:37:10 79° 125° (SE) 01:41:59 436.795
O/OREOS (USA 219) 25 Aug 01:33:54 01:38:05 35° 253° (WSW) 01:42:16 437.305
ITUPSAT 1 25 Aug 01:39:19 01:43:03 23° 62° (ENE) 01:46:47 437.325
CUBEBUG 1 25 Aug 01:44:48 01:45:01 10° 274° (W) 01:45:14 437.445
CUSAT 1 25 Aug 01:57:48 01:59:00 12° 301° (WNW) 02:00:18 437.405
DX 1 25 Aug 02:01:37 02:02:49 11° 272° (W) 02:04:01 434.975-435.025
QB50P1 25 Aug 02:07:00 02:10:17 22° 296° (WNW) 02:13:32 145.935-145.965
SWISSCUBE 25 Aug 02:13:18 02:17:53 50° 70° (ENE) 02:22:29 437.505
POPSAT HIP 1 25 Aug 02:16:56 02:19:52 18° 298° (WNW) 02:22:47 437.405
Oscar 19 25 Aug 02:17:58 02:22:54 41° 98° (E) 02:27:46 437.125/150
DANDE 25 Aug 02:20:31 02:22:12 15° 293° (WNW) 02:23:56 436.750
BUGSAT 1 25 Aug 02:22:38 02:26:26 34° 292° (WNW) 02:30:09 437.445
BEESAT 25 Aug 02:30:42 02:35:24 66° 72° (ENE) 02:40:08 436.000
TISAT 1 25 Aug 02:47:32 02:50:31 18° 268° (W) 02:53:32 437.305
DUCHIFAT 1 25 Aug 02:50:45 02:51:30 10° 303° (WNW) 02:52:15 145.980
JAS-2 25 Aug 02:51:01 02:56:49 37° 296° (WNW) 03:03:16 435.910
RS-15 25 Aug 02:58:13 03:09:46 77° 121° (ESE) 03:21:57 29.354- 29.394
Gurwin Techsat 1B 25 Aug 03:00:18 03:05:25 46° 99° (E) 03:10:31 435.225
SO-50 25 Aug 03:14:18 03:18:10 23° 326° (NW) 03:22:02 436.795
MOZHAYETS 4 25 Aug 03:15:40 03:19:36 29° 66° (ENE) 03:23:32
ITUPSAT 1 25 Aug 03:16:00 03:20:36 49° 260° (W) 03:25:15 437.325
ITAMSAT 1 25 Aug 03:24:54 03:29:07 25° 93° (E) 03:33:20 435.822/435.867
KKS-1 25 Aug 03:34:44 03:38:50 36° 68° (ENE) 03:42:57 437.445
SWISSCUBE 25 Aug 03:52:22 03:55:58 21° 268° (W) 03:59:34 437.505
Oscar 19 25 Aug 03:57:32 04:02:05 31° 296° (WNW) 04:06:37 437.125/150
PHONESAT 2.4 25 Aug 04:01:44 04:02:37 11° 158° (SSE) 04:03:29 2401.200-2431.200
BEESAT 25 Aug 04:10:43 04:13:40 16° 270° (W) 04:16:37 436.000
STARS 25 Aug 04:19:49 04:24:07 51° 71° (ENE) 04:28:27 437.465
AO-7 25 Aug 04:22:38 04:30:21 40° 98° (E) 04:37:59 29.400- 29.500
CUBESAT XI-V 25 Aug 04:26:52 04:30:23 22° 63° (ENE) 04:33:56 437.345
Gurwin Techsat 1B 25 Aug 04:40:40 04:45:11 29° 297° (WNW) 04:49:40 435.225
MOZHAYETS 4 25 Aug 04:52:31 04:56:40 34° 264° (W) 05:00:51
SO-50 25 Aug 04:59:39 05:00:24 10° 350° (N) 05:01:08 436.795
ITAMSAT 1 25 Aug 05:03:51 05:08:51 49° 292° (WNW) 05:13:49 435.822/435.867
Cosmos 2491 25 Aug 05:05:41 05:13:43 37° 67° (ENE) 05:21:42 435.465 / 435.565
KKS-1 25 Aug 05:11:41 05:15:28 27° 265° (W) 05:19:17 437.445
RS-15 25 Aug 05:12:05 05:23:22 47° 329° (NNW) 05:35:10 29.354- 29.394
BRITE-PL 25 Aug 05:23:13 05:24:59 11° 83° (E) 05:26:46 437.365/2234.400
AO-85 25 Aug 05:33:27 05:35:39 13° 108° (ESE) 05:37:50 145.980
PHONESAT 2.4 25 Aug 05:35:58 05:38:20 21° 174° (S) 05:40:42 2401.200-2431.200
NOAA 15 25 Aug 05:55:01 05:56:22 11° 85° (E) 05:57:44 137.62
STARS 25 Aug 05:57:40 06:00:46 18° 268° (W) 06:03:54 437.465
CUBESAT XI-V 25 Aug 06:03:01 06:07:28 48° 261° (W) 06:11:58 437.345
STRAND 1 25 Aug 06:04:05 06:07:12 17° 57° (ENE) 06:10:20 437.568
AO-7 25 Aug 06:15:20 06:23:22 55° 299° (WNW) 06:31:22 29.400- 29.500
HORYU 2 25 Aug 06:21:06 06:25:31 67° 102° (ESE) 06:29:54 437.375
YUBILEINY 25 Aug 06:25:21 06:33:14 38° 84° (E) 06:41:08 435.215
SO-50 25 Aug 06:41:31 06:43:05 11° 15° (NNE) 06:44:38 436.795
Cosmos 2504 25 Aug 06:51:02 06:56:32 20° 78° (ENE) 07:01:49 435.465 / 435.565
LilacSat-2 25 Aug 06:51:09 06:54:14 23° 94° (E) 06:57:18 437.200
GOMX 1 25 Aug 06:52:13 06:57:06 32° 93° (E) 07:01:47 467.674
BRITE-PL 25 Aug 06:58:42 07:04:24 71° 102° (ESE) 07:10:04 437.365/2234.400
Cosmos 2491 25 Aug 07:02:25 07:11:01 59° 269° (W) 07:19:36 435.465 / 435.565
Cubesat XI-IV 25 Aug 07:06:51 07:11:47 37° 97° (E) 07:16:42 437.490
AO-85 25 Aug 07:10:10 07:15:26 76° 126° (SE) 07:20:24 145.980
PHONESAT 2.4 25 Aug 07:11:58 07:14:11 19° 191° (S) 07:16:23 2401.200-2431.200
DOVE 4 25 Aug 07:15:58 07:20:07 24° 91° (E) 07:24:06 437.250
CUTE-I 25 Aug 07:19:41 07:24:50 48° 99° (E) 07:29:57 437.470
RS-15 25 Aug 07:28:58 07:39:44 34° 3° (N) 07:50:41 29.354- 29.394
NOAA 15 25 Aug 07:31:41 07:37:02 76° 104° (ESE) 07:42:21 137.62
NOAA 18 25 Aug 07:31:59 07:37:22 54° 101° (E) 07:42:43 137.9125
STRAND 1 25 Aug 07:40:38 07:45:45 83° 256° (WSW) 07:50:53 437.568
HO-68 25 Aug 07:57:25 08:02:28 20° 89° (E) 08:07:28 435.675
HORYU 2 25 Aug 07:58:54 08:01:35 16° 301° (WNW) 08:04:16 437.375
SEEDS 25 Aug 08:10:59 08:12:00 11° 87° (E) 08:13:01 437.485
